| time (UTC) | temp C | wind direction | speed KPH | gust KPH | rain 1hr cm | rain 24hr cm | rain mn cm | humidity % | barometer mb |
| 20260506090009 | 11 | 278 | 6.4 | 17.7 | 0.00 | 0.00 | 0.00 | 83 | 1014.6 |
| 20260506084506 | 12 | 233 | 3.2 | 9.7 | 0.00 | 0.00 | 0.00 | 80 | 1014.7 |
| 20260506083005 | 12 | 239 | 0.0 | 16.1 | 0.00 | 0.00 | 0.00 | 80 | 1014.6 |
| 20260506081503 | 12 | 206 | 6.4 | 12.9 | 0.00 | 0.00 | 0.00 | 80 | 1014.6 |
| 20260506073059 | 12 | 223 | 1.6 | 8.0 | 0.00 | 0.00 | 0.00 | 80 | 1014.1 |
| 20260506071559 | 12 | 258 | 1.6 | 4.8 | 0.00 | 0.00 | 0.00 | 81 | 1014.0 |
| 20260506061555 | 12 | 285 | 12.9 | 22.5 | 0.00 | 0.00 | 0.00 | 82 | 1013.5 |
| 20260506044548 | 15 | 49 | 1.6 | 11.3 | 0.00 | 0.00 | 0.00 | 69 | 1012.9 |
| 20260506043049 | 15 | 20 | 3.2 | 12.9 | 0.00 | 0.00 | 0.00 | 67 | 1012.7 |
| 20260506041601 | 16 | 124 | 1.6 | 11.3 | 0.00 | 0.00 | 0.00 | 68 | 1012.6 |
| 20260506040047 | 16 | 101 | 3.2 | 11.3 | 0.00 | 0.00 | 0.00 | 67 | 1012.5 |
| 20260506034548 | 16 | 172 | 1.6 | 12.9 | 0.00 | 0.00 | 0.00 | 67 | 1012.4 |
| 20260506033046 | 17 | 144 | 3.2 | 12.9 | 0.00 | 0.00 | 0.00 | 65 | 1012.3 |
| 20260506031547 | 17 | 325 | 6.4 | 16.1 | 0.00 | 0.00 | 0.00 | 64 | 1012.2 |
| 20260506030045 | 17 | 319 | 6.4 | 27.4 | 0.00 | 0.00 | 0.00 | 63 | 1012.1 |
| 20260506024545 | 18 | 259 | 11.3 | 20.9 | 0.00 | 0.00 | 0.00 | 62 | 1012.0 |
| 20260506023101 | 18 | 284 | 6.4 | 19.3 | 0.00 | 0.00 | 0.00 | 61 | 1012.2 |
| 20260506021606 | 19 | 335 | 6.4 | 17.7 | 0.00 | 0.00 | 0.00 | 60 | 1012.1 |
| 20260506020044 | 20 | 275 | 6.4 | 27.4 | 0.00 | 0.00 | 0.00 | 60 | 1012.2 |
| 20260506014543 | 20 | 287 | 9.7 | 24.1 | 0.00 | 0.00 | 0.00 | 58 | 1012.2 |
| 20260506013053 | 20 | 229 | 9.7 | 20.9 | 0.00 | 0.00 | 0.00 | 57 | 1012.3 |
| 20260506011548 | 21 | 263 | 4.8 | 20.9 | 0.00 | 0.00 | 0.00 | 56 | 1012.3 |
| 20260506010042 | 21 | 184 | 6.4 | 22.5 | 0.00 | 0.00 | 0.00 | 56 | 1012.4 |
| 20260506004541 | 21 | 195 | 8.0 | 30.6 | 0.00 | 0.00 | 0.00 | 55 | 1012.4 |
| 20260506003042 | 21 | 247 | 6.4 | 22.5 | 0.00 | 0.00 | 0.00 | 54 | 1012.5 |
| 20260506001541 | 21 | 260 | 8.0 | 19.3 | 0.00 | 0.00 | 0.00 | 54 | 1012.7 |
| 20260506000044 | 21 | 291 | 11.3 | 29.0 | 0.00 | 0.00 | 0.00 | 54 | 1012.9 |
| 20260505234540 | 21 | 282 | 6.4 | 19.3 | 0.00 | 0.00 | 0.00 | 55 | 1013.0 |
| 20260505233039 | 21 | 256 | 11.3 | 17.7 | 0.00 | 0.00 | 0.00 | 54 | 1013.2 |
| 20260505231549 | 21 | 215 | 8.0 | 20.9 | 0.00 | 0.00 | 0.00 | 55 | 1013.4 |
| 20260505230036 | 21 | 273 | 9.7 | 19.3 | 0.00 | 0.00 | 0.00 | 55 | 1013.4 |
| 20260505224535 | 21 | 250 | 9.7 | 20.9 | 0.00 | 0.00 | 0.00 | 55 | 1013.5 |
| 20260505223034 | 21 | 228 | 8.0 | 24.1 | 0.00 | 0.00 | 0.00 | 56 | 1013.6 |
| 20260505221534 | 21 | 145 | 4.8 | 24.1 | 0.00 | 0.00 | 0.00 | 58 | 1013.8 |
| 20260505220032 | 20 | 250 | 6.4 | 17.7 | 0.00 | 0.00 | 0.00 | 59 | 1014.0 |
| 20260505214542 | 20 | 225 | 8.0 | 20.9 | 0.00 | 0.00 | 0.00 | 60 | 1014.0 |
| 20260505213036 | 20 | 265 | 4.8 | 19.3 | 0.00 | 0.00 | 0.00 | 60 | 1014.0 |
| 20260505211528 | 20 | 279 | 6.4 | 17.7 | 0.00 | 0.00 | 0.00 | 60 | 1014.1 |
| 20260505210026 | 19 | 211 | 9.7 | 17.7 | 0.00 | 0.00 | 0.00 | 60 | 1014.3 |
| 20260505204526 | 19 | 209 | 4.8 | 19.3 | 0.00 | 0.00 | 0.00 | 61 | 1014.4 |
| 20260505203030 | 19 | 197 | 8.0 | 16.1 | 0.00 | 0.00 | 0.00 | 61 | 1014.4 |
| 20260505201531 | 18 | 210 | 3.2 | 14.5 | 0.00 | 0.00 | 0.00 | 63 | 1014.4 |
| 20260505200022 | 18 | 175 | 11.3 | 22.5 | 0.00 | 0.00 | 0.00 | 63 | 1014.5 |
| 20260505194521 | 18 | 232 | 8.0 | 17.7 | 0.00 | 0.00 | 0.00 | 64 | 1014.4 |
| 20260505193029 | 18 | 268 | 8.0 | 20.9 | 0.00 | 0.00 | 0.00 | 64 | 1014.5 |
| 20260505191520 | 18 | 207 | 6.4 | 14.5 | 0.00 | 0.00 | 0.00 | 63 | 1014.5 |
| 20260505190017 | 18 | 275 | 4.8 | 16.1 | 0.00 | 0.00 | 0.00 | 66 | 1014.5 |
| 20260505184516 | 17 | 220 | 9.7 | 19.3 | 0.00 | 0.00 | 0.00 | 66 | 1014.4 |
| 20260505183020 | 17 | 278 | 6.4 | 19.3 | 0.00 | 0.00 | 0.00 | 65 | 1014.4 |
| 20260505181512 | 17 | 261 | 4.8 | 17.7 | 0.00 | 0.00 | 0.00 | 68 | 1014.2 |
| 20260505180017 | 17 | 203 | 6.4 | 19.3 | 0.00 | 0.00 | 0.00 | 67 | 1014.2 |
| 20260505174510 | 17 | 256 | 4.8 | 16.1 | 0.00 | 0.00 | 0.00 | 67 | 1014.2 |
| 20260505173009 | 17 | 224 | 3.2 | 16.1 | 0.00 | 0.00 | 0.00 | 69 | 1014.1 |
| 20260505171507 | 16 | 175 | 8.0 | 19.3 | 0.00 | 0.00 | 0.00 | 68 | 1014.0 |
| 20260505170015 | 16 | 188 | 8.0 | 16.1 | 0.00 | 0.00 | 0.00 | 70 | 1014.0 |
| 20260505164507 | 16 | 151 | 4.8 | 19.3 | 0.00 | 0.00 | 0.00 | 72 | 1014.0 |
| 20260505163009 | 16 | 178 | 8.0 | 16.1 | 0.00 | 0.00 | 0.00 | 73 | 1013.9 |
| 20260505161505 | 16 | 139 | 6.4 | 19.3 | 0.00 | 0.00 | 0.00 | 72 | 1014.0 |
| 20260505153003 | 15 | 239 | 4.8 | 9.7 | 0.00 | 0.00 | 0.00 | 75 | 1013.6 |
| 20260505151502 | 14 | 292 | 3.2 | 8.0 | 0.00 | 0.00 | 0.00 | 76 | 1013.5 |
| 20260505140107 | 14 | 338 | 0.0 | 3.2 | 0.00 | 0.00 | 0.00 | 79 | 1012.4 |
| 20260505124554 | 12 | 254 | 3.2 | 12.9 | 0.00 | 0.00 | 0.00 | 80 | 1011.8 |
| 20260505123051 | 12 | 247 | 3.2 | 6.4 | 0.00 | 0.00 | 0.00 | 79 | 1011.7 |
| 20260505121601 | 13 | 251 | 1.6 | 6.4 | 0.00 | 0.00 | 0.00 | 76 | 1011.6 |
| 20260505120047 | 13 | 230 | 3.2 | 9.7 | 0.00 | 0.00 | 0.00 | 76 | 1011.4 |
| 20260505114546 | 12 | 275 | 3.2 | 8.0 | 0.00 | 0.00 | 0.00 | 78 | 1011.3 |
| 20260505113043 | 13 | 294 | 0.0 | 3.2 | 0.00 | 0.00 | 0.00 | 77 | 1011.0 |
| 20260505111544 | 13 | 294 | 1.6 | 11.3 | 0.00 | 0.00 | 0.00 | 76 | 1010.8 |
| 20260505101540 | 13 | 242 | 3.2 | 6.4 | 0.00 | 0.00 | 0.00 | 74 | 1010.2 |
| 20260505100035 | 14 | 74 | 0.0 | 0.0 | 0.00 | 0.00 | 0.00 | 72 | 1009.9 |
| 20260505094532 | 14 | 74 | 1.6 | 4.8 | 0.00 | 0.00 | 0.00 | 71 | 1009.8 |
| 20260505093039 | 14 | 280 | 0.0 | 6.4 | 0.00 | 0.00 | 0.00 | 71 | 1009.8 |
| 20260505091529 | 15 | 265 | 1.6 | 14.5 | 0.00 | 0.00 | 0.00 | 69 | 1009.8 |